Regional Weather Roundup
Issued by NWS State College, PA

Home | Current Version | Previous Version | Graphics & Text | Print | Product List | Glossary Off
Versions: 1 2 3 4 5 6 7 8 9 10 11 12 13 14 15 16 17 18 19 20 21 22 23 24 25 26 27 28 29 30 31 32 33 34 35 36 37 38 39 40 41 42 43 44 45 46 47 48 49 50

758
ASUS41 KCTP 231410
RWRCTP

REGIONAL WEATHER ROUNDUP
NATIONAL WEATHER SERVICE STATE COLLEGE PA
900 AM EST THU NOV 23 2017

Note: "fair" indicates few or no clouds below 12,000 feet with no
significant weather and/or obstructions to visibility.

* = STATION THAT DOES NOT REPORT PRECIPITATION /E.G. RAIN...SNOW...ETC/
    THUNDER OR FOG.

PAZ002>004-007>009-013>016-020>023-029>032-231500-
WESTERN PENNSYLVANIA

CITY           SKY/WX    TMP DP  RH WIND       PRES   REMARKS
ERIE           CLOUDY    32  20  61 SW12      30.14R
MEADVILLE      CLOUDY    28  20  71 SW7       30.12R
FRANKLIN*      CLOUDY    27  20  75 SW6       30.11S
NEW CASTLE     FAIR      28  24  85 CALM      30.15S
BEAVER COUNTY  NOT AVBL
BUTLER*        MOSUNNY   29  22  75 SW3       30.14S
PITTSBURGH INT PTSUNNY   27  23  85 CALM      30.13F
PITTSBURGH     CLOUDY    27  19  72 S6        30.13F
INDIANA*       SUNNY     30  21  69 W7        30.16S
LATROBE        MOSUNNY   27  21  80 CALM      30.16F
WASHINGTON CO* CLOUDY    29  23  78 CALM      30.17F
$$

PAZ004>006-010>012-017>019-024>028-033>037-041-042-045-046-049>053-231500-
CENTRAL PENNSYLVANIA

CITY           SKY/WX    TMP DP  RH WIND       PRES   REMARKS
BRADFORD       CLOUDY    27  21  78 VRB5      30.06R
DUBOIS         MOSUNNY   28  18  66 W6        30.08S
CLEARFIELD     CLOUDY    31  20  63 W7        30.10F
JOHNSTOWN      SUNNY     25  18  74 W6        30.07S
ALTOONA        CLOUDY    31  20  63 NW7       30.12F
STATE COLLEGE  CLOUDY    30  19  64 W6        30.12S
WILLIAMSPORT   CLOUDY    34  19  54 CALM      30.15S
SELINSGROVE    CLOUDY    33  22  63 N6        30.17F
FT INDIANTOWN  SUNNY     33  18  54 NW3       30.15F
CAPITAL CITY   SUNNY     36  20  52 VRB5      30.17S
HARRISBURG     SUNNY     35  22  58 CALM      30.16F
YORK           SUNNY     32  24  72 W5        30.16F
$$

PAZ038>040-043-044-047-048-054-055-060>062-067>071-231500-
EASTERN PENNSYLVANIA

CITY           SKY/WX    TMP DP  RH WIND       PRES   REMARKS
SCRANTON       CLOUDY    30  18  60 NW7       30.12R
MOUNT POCONO   SUNNY     25  17  72 NW15G21   30.03F WCI  13
ALLENTOWN      SUNNY     32  18  56 NW7       30.15S
QUAKERTOWN*    SUNNY     32  18  55 N6        30.15S
READING        SUNNY     33  22  63 VRB7      30.16S
LANCASTER      SUNNY     32  24  72 NW5       30.16F
COATESVILLE    SUNNY     32  19  59 N7        30.15F
POTTSTOWN      SUNNY     31  17  56 N10       30.18S
BLUE BELL      SUNNY     32  19  59 NW7       30.18S
DOYLESTOWN     SUNNY     32  18  56 NW9       30.14S
WILLOW GROVE   NOT AVBL
NORTH PHILA    SUNNY     35  19  52 NW10      30.18S
PHILADELPHIA   MOSUNNY   34  18  52 N10       30.18S
$$




USA.gov is the U.S. government's official web portal to all federal, state and local government web resources and services.